Ft Riley, KS

11:35 AM CDT on October 20, 2019 (GMT -0500)
Marshall Army Air Field

Weather History for KFRI - September, 2019

Change the Weather History Date:

Saturday, September 21, 2019

  Actual Average (WUND) Record (WUND)
Temperature  
Mean Temperature 79 °F -  
Max Temperature 87 °F - - (-1)
Min Temperature 72 °F - - (-1)
Cooling Degree Days 14    
Growing Degree Days 29 (Base 50)    
Moisture  
Dew Point 69 °F    
Average Humidity 77    
Maximum Humidity 88    
Minimum Humidity 55    
Precipitation  
Precipitation 0.00 in - - ()
Sea Level Pressure  
Sea Level Pressure 29.85 in    
Wind  
Wind Speed 13 mph ()    
Max Wind Speed 23 mph    
Max Gust Speed 33 mph    
Visibility 10.0 miles    
Events      
Averages and records for this station are not official NWS values.
T = Trace of Precipitation, MM = Missing Value Source: Averaged Metar Reports

Daily Weather History Graph

Daily Weather History Graph

Search for Another Location

Airport or City:

Astronomy

Sep. 21, 2019 Rise Set
Actual Time 7:13 AM CDT 7:25 PM CDT
Civil Twilight 6:46 AM CDT 7:52 PM CDT
Nautical Twilight 6:15 AM CDT 8:23 PM CDT
Astronomical Twilight 5:43 AM CDT 8:55 PM CDT
Moon No Moon Rise 2:17 PM CDT (9/21)
Length of Visible Light 13h 05m
Length of Day
12h 12m
Waning Gibbous, 54% of the Moon is Illuminated
Sep 21
Waning Gibbous
Sep 21
Last Quarter
Sep 28
New
Oct 5
First Quarter
Oct 13
Full

Hourly Weather History & Observations

Time (CDT) Temp. Heat Index Dew Point Humidity Pressure Visibility Wind Dir Wind Speed Gust Speed Precip Events Conditions
12:11 AM 73.4 °F - 69.8 °F 88% 29.87 in 10.0 mi South 13.8 mph - N/A   Mostly Cloudy
12:26 AM 75.2 °F - 69.8 °F 83% 29.88 in 10.0 mi South 11.5 mph - N/A   Mostly Cloudy
12:56 AM 75.4 °F - 69.8 °F 83% 29.87 in 10.0 mi South 13.8 mph 20.7 mph N/A   Overcast
1:11 AM 75.2 °F - 69.8 °F 83% 29.87 in 10.0 mi South 11.5 mph - N/A   Mostly Cloudy
1:26 AM 75.2 °F - 69.8 °F 83% 29.86 in 10.0 mi South 13.8 mph - N/A   Partly Cloudy
1:41 AM 75.2 °F - 69.8 °F 83% 29.86 in 10.0 mi South 13.8 mph - N/A   Mostly Cloudy
1:56 AM 75.0 °F - 69.4 °F 83% 29.87 in 10.0 mi South 13.8 mph - N/A   Overcast
2:41 AM 75.2 °F - 69.8 °F 83% 29.85 in 10.0 mi South 17.3 mph - N/A   Scattered Clouds
2:56 AM 74.7 °F - 68.7 °F 82% 29.86 in 10.0 mi South 15.0 mph - N/A   Mostly Cloudy
3:41 AM 73.4 °F - 68.0 °F 83% 29.86 in 10.0 mi South 15.0 mph 19.6 mph N/A   Scattered Clouds
3:56 AM 73.6 °F - 68.0 °F 83% 29.86 in 10.0 mi South 15.0 mph - N/A   Partly Cloudy
4:56 AM 73.0 °F - 67.5 °F 83% 29.86 in 10.0 mi South 13.8 mph 20.7 mph N/A   Scattered Clouds
5:56 AM 72.7 °F - 67.5 °F 84% 29.87 in 10.0 mi South 13.8 mph 23.0 mph N/A   Mostly Cloudy
6:56 AM 72.5 °F - 66.6 °F 82% 29.87 in 10.0 mi South 13.8 mph - N/A   Overcast
7:56 AM 73.2 °F - 66.6 °F 80% 29.88 in 10.0 mi South 12.7 mph - N/A   Mostly Cloudy
8:41 AM 75.2 °F - 68.0 °F 78% 29.89 in 10.0 mi South 13.8 mph 24.2 mph N/A   Mostly Cloudy
8:56 AM 74.5 °F - 67.1 °F 78% 29.89 in 10.0 mi South 15.0 mph 26.5 mph N/A   Mostly Cloudy
9:56 AM 75.7 °F - 68.0 °F 77% 29.91 in 10.0 mi SSW 12.7 mph - N/A   Overcast
10:56 AM 77.4 °F - 68.7 °F 75% 29.87 in 10.0 mi South 13.8 mph 21.9 mph N/A   Mostly Cloudy
11:56 AM 80.4 °F 83.8 °F 70.2 °F 71% 29.87 in 10.0 mi South 19.6 mph 26.5 mph N/A   Overcast
12:26 PM 80.6 °F 83.9 °F 69.8 °F 70% 29.86 in 10.0 mi SSW 15.0 mph - N/A   Overcast
12:56 PM 80.4 °F 83.8 °F 70.2 °F 71% 29.86 in 10.0 mi SSW 16.1 mph 24.2 mph N/A   Overcast
1:11 PM 80.6 °F 83.9 °F 69.8 °F 70% 29.86 in 10.0 mi South 18.4 mph 25.3 mph N/A   Overcast
1:56 PM 83.1 °F 87.6 °F 70.9 °F 66% 29.84 in 10.0 mi SSW 23.0 mph 33.4 mph N/A   Mostly Cloudy
2:56 PM 84.9 °F 89.1 °F 69.4 °F 60% 29.83 in 10.0 mi SSW 21.9 mph 32.2 mph N/A   Mostly Cloudy
3:56 PM 86.2 °F 89.7 °F 68.5 °F 55% 29.82 in 10.0 mi SSW 15.0 mph - N/A   Mostly Cloudy
4:56 PM 86.4 °F 92.2 °F 71.2 °F 61% 29.81 in 10.0 mi South 16.1 mph - N/A   Partly Cloudy
5:56 PM 84.6 °F 90.0 °F 71.4 °F 65% 29.81 in 10.0 mi South 16.1 mph 21.9 mph N/A   Clear
6:56 PM 82.0 °F 86.7 °F 71.6 °F 71% 29.81 in 10.0 mi South 16.1 mph 24.2 mph N/A   Mostly Cloudy
7:56 PM 79.9 °F - 71.6 °F 76% 29.80 in 10.0 mi South 18.4 mph 26.5 mph N/A   Partly Cloudy
8:56 PM 78.3 °F - 70.7 °F 77% 29.81 in 10.0 mi South 16.1 mph 26.5 mph N/A   Clear
9:56 PM 77.0 °F - 70.3 °F 80% 29.80 in 10.0 mi South 17.3 mph 26.5 mph N/A   Clear
10:56 PM 77.2 °F - 70.2 °F 79% 29.83 in 10.0 mi South 17.3 mph 25.3 mph N/A   Clear
11:56 PM 77.7 °F - 70.3 °F 78% 29.84 in 10.0 mi SW 8.1 mph - N/A   Overcast